Location: ?????????
(38.5999°N, 22.7695°E)
Time: 10:59:53
(UTC+00:00)

Cosmos 839 Rocket - Pass Details

Date: 23 May 2024
Orbit: 965 x 2087 km, 65.9° (Epoch: 23 June)

Event Time Altitude Azimuth Distance (km) Brightness Sun altitude
Rises 01:20:57 0° 331° (NNW) 4,147 7.5 -17.9°
Reaches altitude 10° 01:23:53 10° 333° (NNW) 3,046 6.8 -17.5°
Maximum altitude 01:30:51 77° 59° (ENE) 1,045 4.3 -16.6°
Drops below altitude 10° 01:36:59 10° 145° (SE) 2,696 6.2 -15.7°
Sets 01:39:27 0° 147° (SSE) 3,639 6.9 -15.4°
